Time,TemperatureF,DewpointF,PressureIn,WindDirection,WindDirectionDegrees,WindSpeedMPH,WindSpeedGustMPH,Humidity,HourlyPrecipIn,Conditions,Clouds,dailyrainin,SolarRadiationWatts/m^2,SoftwareType,DateUTC
2013-03-16 00:00:00,67.4,66.8,29.99,North,349,3.0,3.0,98,0.00,,,0.00,0,Wunderground v.1.15,2013-03-16 10:00:00,
2013-03-16 00:10:00,67.8,66.9,29.99,North,349,2.0,3.0,97,0.00,,,0.00,0,Wunderground v.1.15,2013-03-16 10:10:00,
2013-03-16 00:15:00,68.2,67.0,29.99,North,349,2.0,3.0,96,0.00,,,0.00,0,Wunderground v.1.15,2013-03-16 10:15:00,
2013-03-16 00:20:00,68.2,67.0,29.99,North,349,1.0,1.0,96,0.00,,,0.00,0,Wunderground v.1.15,2013-03-16 10:20:00,
2013-03-16 00:25:00,68.0,66.8,29.99,North,349,1.0,2.0,96,0.00,,,0.00,0,Wunderground v.1.15,2013-03-16 10:25:00,
2013-03-16 00:30:00,67.6,66.4,29.98,North,349,1.0,1.0,96,0.00,,,0.00,0,Wunderground v.1.15,2013-03-16 10:30:00,
2013-03-16 00:35:00,67.4,66.5,29.98,North,349,1.0,1.0,97,0.00,,,0.00,0,Wunderground v.1.15,2013-03-16 10:35:00,
2013-03-16 00:40:00,67.1,66.2,29.98,North,349,0.0,2.0,97,0.00,,,0.00,0,Wunderground v.1.15,2013-03-16 10:40:00,
2013-03-16 00:45:00,67.0,66.1,29.97,North,349,1.0,2.0,97,0.00,,,0.00,0,Wunderground v.1.15,2013-03-16 10:45:00,
2013-03-16 00:55:00,66.9,66.0,29.97,North,349,1.0,1.0,97,0.00,,,0.00,0,Wunderground v.1.15,2013-03-16 10:55:00,
2013-03-16 01:00:00,66.7,65.8,29.97,North,349,0.0,2.0,97,0.00,,,0.00,0,Wunderground v.1.15,2013-03-16 11:00:00,
2013-03-16 01:10:00,66.6,65.7,29.96,NNW,342,2.0,2.0,97,0.00,,,0.00,0,Wunderground v.1.15,2013-03-16 11:10:00,
2013-03-16 01:15:00,66.6,65.7,29.96,NNW,342,3.0,3.0,97,0.00,,,0.00,0,Wunderground v.1.15,2013-03-16 11:15:00,
2013-03-16 01:25:00,66.5,65.6,29.96,NNW,342,3.0,3.0,97,0.00,,,0.00,0,Wunderground v.1.15,2013-03-16 11:25:00,
2013-03-16 01:30:00,66.5,65.6,29.96,NNW,342,2.0,2.0,97,0.00,,,0.00,0,Wunderground v.1.15,2013-03-16 11:30:00,
2013-03-16 01:35:00,66.4,65.5,29.96,NNW,342,1.0,2.0,97,0.00,,,0.00,0,Wunderground v.1.15,2013-03-16 11:35:00,
2013-03-16 01:40:00,66.3,65.4,29.96,NNW,342,0.0,0.0,97,0.00,,,0.00,0,Wunderground v.1.15,2013-03-16 11:40:00,
2013-03-16 01:45:00,66.3,65.4,29.96,NNW,342,0.0,0.0,97,0.00,,,0.00,0,Wunderground v.1.15,2013-03-16 11:45:00,
2013-03-16 01:50:00,66.3,65.4,29.95,NNW,342,0.0,0.0,97,0.00,,,0.00,0,Wunderground v.1.15,2013-03-16 11:50:00,
2013-03-16 01:55:00,66.5,65.6,29.95,NNW,342,0.0,2.0,97,0.00,,,0.00,0,Wunderground v.1.15,2013-03-16 11:55:00,
2013-03-16 02:00:00,66.6,65.7,29.95,NNW,342,1.0,3.0,97,0.00,,,0.00,0,Wunderground v.1.15,2013-03-16 12:00:00,
2013-03-16 02:10:00,66.6,65.7,29.95,NNW,342,2.0,3.0,97,0.00,,,0.00,0,Wunderground v.1.15,2013-03-16 12:10:00,
2013-03-16 02:15:00,66.6,65.7,29.95,NNW,342,2.0,3.0,97,0.00,,,0.00,0,Wunderground v.1.15,2013-03-16 12:15:00,
2013-03-16 02:25:00,66.5,65.6,29.94,NNW,342,0.0,1.0,97,0.00,,,0.00,0,Wunderground v.1.15,2013-03-16 12:25:00,
2013-03-16 02:35:00,66.2,65.3,29.94,NNW,342,0.0,0.0,97,0.00,,,0.00,0,Wunderground v.1.15,2013-03-16 12:35:00,
2013-03-16 02:40:00,66.0,65.4,29.94,NNW,342,0.0,0.0,98,0.00,,,0.00,0,Wunderground v.1.15,2013-03-16 12:40:00,
2013-03-16 02:45:00,66.0,65.4,29.93,NNW,342,0.0,2.0,98,0.00,,,0.00,0,Wunderground v.1.15,2013-03-16 12:45:00,
2013-03-16 02:50:00,65.9,65.3,29.93,NNW,342,1.0,2.0,98,0.00,,,0.00,0,Wunderground v.1.15,2013-03-16 12:50:00,
2013-03-16 02:55:00,66.0,65.4,29.94,NNW,342,2.0,2.0,98,0.00,,,0.00,0,Wunderground v.1.15,2013-03-16 12:55:00,
2013-03-16 03:00:00,66.1,65.8,29.94,NNW,342,1.0,1.0,99,0.00,,,0.00,0,Wunderground v.1.15,2013-03-16 13:00:00,
2013-03-16 03:10:00,66.1,65.8,29.93,NNW,342,1.0,1.0,99,0.00,,,0.00,0,Wunderground v.1.15,2013-03-16 13:10:00,
2013-03-16 03:15:00,66.1,65.8,29.93,NNW,342,1.0,3.0,99,0.00,,,0.00,0,Wunderground v.1.15,2013-03-16 13:15:00,
2013-03-16 03:20:00,66.0,65.7,29.93,NNW,342,1.0,2.0,99,0.00,,,0.00,0,Wunderground v.1.15,2013-03-16 13:20:00,
2013-03-16 03:25:00,66.0,65.7,29.93,NNW,342,2.0,2.0,99,0.00,,,0.00,0,Wunderground v.1.15,2013-03-16 13:25:00,
2013-03-16 03:30:00,65.9,65.6,29.93,NNW,342,0.0,0.0,99,0.00,,,0.00,0,Wunderground v.1.15,2013-03-16 13:30:00,
2013-03-16 03:40:00,65.8,65.5,29.93,NNW,342,0.0,0.0,99,0.00,,,0.00,0,Wunderground v.1.15,2013-03-16 13:40:00,
2013-03-16 03:45:00,65.8,65.2,29.93,NNW,342,0.0,0.0,98,0.00,,,0.00,0,Wunderground v.1.15,2013-03-16 13:45:00,
2013-03-16 03:50:00,65.9,65.3,29.94,NNW,342,1.0,2.0,98,0.00,,,0.00,0,Wunderground v.1.15,2013-03-16 13:50:00,
2013-03-16 03:55:00,65.9,65.3,29.93,NNW,342,1.0,2.0,98,0.00,,,0.00,0,Wunderground v.1.15,2013-03-16 13:55:00,
2013-03-16 04:00:00,65.9,65.3,29.93,NNW,342,1.0,1.0,98,0.00,,,0.00,0,Wunderground v.1.15,2013-03-16 14:00:00,
2013-03-16 04:10:00,65.7,64.8,29.93,NNW,342,2.0,3.0,97,0.00,,,0.00,0,Wunderground v.1.15,2013-03-16 14:10:00,
2013-03-16 04:15:00,65.7,64.8,29.93,NNW,342,3.0,3.0,97,0.00,,,0.00,0,Wunderground v.1.15,2013-03-16 14:15:00,
2013-03-16 04:20:00,65.9,65.0,29.93,NNW,342,2.0,2.0,97,0.00,,,0.00,0,Wunderground v.1.15,2013-03-16 14:20:00,
2013-03-16 04:25:00,66.0,65.1,29.93,NNW,342,2.0,2.0,97,0.00,,,0.00,0,Wunderground v.1.15,2013-03-16 14:25:00,
2013-03-16 04:30:00,66.0,65.1,29.93,NNW,342,1.0,1.0,97,0.00,,,0.00,0,Wunderground v.1.15,2013-03-16 14:30:00,
2013-03-16 04:35:00,65.9,65.3,29.93,NNW,342,0.0,1.0,98,0.00,,,0.00,0,Wunderground v.1.15,2013-03-16 14:35:00,
2013-03-16 04:40:00,65.9,65.3,29.93,NNW,342,0.0,0.0,98,0.00,,,0.00,0,Wunderground v.1.15,2013-03-16 14:40:00,
2013-03-16 04:45:00,65.8,65.2,29.94,NNW,342,0.0,0.0,98,0.00,,,0.00,0,Wunderground v.1.15,2013-03-16 14:45:00,
2013-03-16 04:50:00,65.7,65.1,29.94,NNW,342,0.0,0.0,98,0.00,,,0.00,0,Wunderground v.1.15,2013-03-16 14:50:00,
2013-03-16 04:55:00,65.6,65.0,29.94,NNW,342,0.0,3.0,98,0.00,,,0.00,0,Wunderground v.1.15,2013-03-16 14:55:00,
2013-03-16 05:00:00,65.5,64.9,29.94,NNW,342,1.0,2.0,98,0.00,,,0.00,0,Wunderground v.1.15,2013-03-16 15:00:00,
2013-03-16 05:10:00,65.5,64.9,29.94,NNW,342,2.0,2.0,98,0.00,,,0.00,0,Wunderground v.1.15,2013-03-16 15:10:00,
2013-03-16 05:15:00,65.5,65.2,29.94,NNW,342,1.0,2.0,99,0.00,,,0.00,0,Wunderground v.1.15,2013-03-16 15:15:00,
2013-03-16 05:20:00,65.4,64.8,29.94,NNW,342,0.0,0.0,98,0.00,,,0.00,0,Wunderground v.1.15,2013-03-16 15:20:00,
2013-03-16 05:25:00,65.4,65.1,29.94,NNW,342,1.0,3.0,99,0.00,,,0.00,0,Wunderground v.1.15,2013-03-16 15:25:00,
2013-03-16 05:30:00,65.4,65.1,29.94,NNW,342,2.0,2.0,99,0.00,,,0.00,0,Wunderground v.1.15,2013-03-16 15:30:00,
2013-03-16 05:35:00,65.3,65.0,29.94,NNW,342,2.0,3.0,99,0.00,,,0.00,0,Wunderground v.1.15,2013-03-16 15:35:00,
2013-03-16 05:40:00,65.3,65.0,29.95,NNW,342,2.0,2.0,99,0.00,,,0.00,0,Wunderground v.1.15,2013-03-16 15:40:00,
2013-03-16 05:45:00,65.3,65.0,29.95,NNW,342,2.0,2.0,99,0.00,,,0.00,0,Wunderground v.1.15,2013-03-16 15:45:00,
2013-03-16 05:50:00,65.4,65.1,29.95,NNW,342,1.0,1.0,99,0.00,,,0.00,0,Wunderground v.1.15,2013-03-16 15:50:00,
2013-03-16 05:55:00,65.3,65.0,29.95,NNW,342,1.0,3.0,99,0.00,,,0.00,0,Wunderground v.1.15,2013-03-16 15:55:00,
2013-03-16 06:00:00,65.4,65.1,29.95,NNW,342,2.0,3.0,99,0.00,,,0.00,0,Wunderground v.1.15,2013-03-16 16:00:00,
2013-03-16 06:10:00,65.5,65.2,29.95,NNW,342,1.0,1.0,99,0.00,,,0.00,0,Wunderground v.1.15,2013-03-16 16:10:00,
2013-03-16 06:15:00,65.3,64.7,29.95,NNW,342,0.0,1.0,98,0.00,,,0.00,0,Wunderground v.1.15,2013-03-16 16:15:00,
2013-03-16 06:20:00,65.0,64.4,29.95,NNW,342,0.0,0.0,98,0.00,,,0.00,0,Wunderground v.1.15,2013-03-16 16:20:00,
2013-03-16 06:25:00,65.0,64.7,29.95,NNW,342,0.0,3.0,99,0.00,,,0.00,0,Wunderground v.1.15,2013-03-16 16:25:00,
2013-03-16 06:30:00,65.0,64.7,29.95,NNW,342,2.0,2.0,99,0.00,,,0.00,0,Wunderground v.1.15,2013-03-16 16:30:00,
2013-03-16 06:40:00,65.2,64.9,29.95,NNW,342,2.0,2.0,99,0.00,,,0.00,11,Wunderground v.1.15,2013-03-16 16:40:00,
2013-03-16 06:45:00,65.4,65.1,29.96,NNW,342,2.0,2.0,99,0.00,,,0.00,18,Wunderground v.1.15,2013-03-16 16:45:00,
2013-03-16 06:50:00,65.6,65.3,29.96,NNW,342,2.0,2.0,99,0.00,,,0.00,58,Wunderground v.1.15,2013-03-16 16:50:00,
2013-03-16 06:55:00,65.9,65.3,29.96,NNW,342,2.0,2.0,98,0.00,,,0.00,56,Wunderground v.1.15,2013-03-16 16:55:00,
2013-03-16 07:00:00,66.2,65.3,29.97,NNW,342,1.0,1.0,97,0.00,,,0.00,79,Wunderground v.1.15,2013-03-16 17:00:00,
2013-03-16 07:10:00,67.0,66.1,29.97,NNW,342,0.0,0.0,97,0.00,,,0.00,118,Wunderground v.1.15,2013-03-16 17:10:00,
2013-03-16 07:15:00,67.4,66.5,29.97,NNW,342,0.0,0.0,97,0.00,,,0.00,111,Wunderground v.1.15,2013-03-16 17:15:00,
2013-03-16 07:25:00,68.4,67.2,29.98,NNW,342,0.0,0.0,96,0.00,,,0.00,142,Wunderground v.1.15,2013-03-16 17:25:00,
2013-03-16 07:30:00,68.9,67.1,29.98,NNW,342,1.0,5.0,94,0.00,,,0.00,169,Wunderground v.1.15,2013-03-16 17:30:00,
2013-03-16 07:35:00,69.4,67.3,29.98,NNW,342,2.0,5.0,93,0.00,,,0.00,197,Wunderground v.1.15,2013-03-16 17:35:00,
2013-03-16 07:40:00,69.8,67.4,29.98,NNW,342,3.0,3.0,92,0.00,,,0.00,206,Wunderground v.1.15,2013-03-16 17:40:00,
2013-03-16 07:45:00,70.1,67.3,29.99,NNW,342,2.0,3.0,91,0.00,,,0.00,192,Wunderground v.1.15,2013-03-16 17:45:00,
2013-03-16 07:50:00,70.3,67.5,29.99,NNW,342,1.0,1.0,91,0.00,,,0.00,179,Wunderground v.1.15,2013-03-16 17:50:00,
2013-03-16 07:55:00,70.6,67.8,29.99,NNW,342,1.0,2.0,91,0.00,,,0.00,186,Wunderground v.1.15,2013-03-16 17:55:00,
2013-03-16 08:00:00,70.9,68.1,29.99,NNW,342,2.0,2.0,91,0.00,,,0.00,436,Wunderground v.1.15,2013-03-16 18:00:00,
2013-03-16 08:10:00,71.9,68.5,29.99,NNW,342,2.0,2.0,89,0.00,,,0.00,431,Wunderground v.1.15,2013-03-16 18:10:00,
2013-03-16 08:15:00,72.0,68.2,29.99,NNE,23,3.0,3.0,88,0.00,,,0.00,202,Wunderground v.1.15,2013-03-16 18:15:00,
2013-03-16 08:20:00,71.7,68.3,29.99,NE,39,3.0,3.0,89,0.00,,,0.00,592,Wunderground v.1.15,2013-03-16 18:20:00,
2013-03-16 08:25:00,71.9,68.5,30.00,NNE,16,3.0,3.0,89,0.00,,,0.00,359,Wunderground v.1.15,2013-03-16 18:25:00,
2013-03-16 08:30:00,72.2,68.8,30.00,NNE,16,2.0,3.0,89,0.00,,,0.00,283,Wunderground v.1.15,2013-03-16 18:30:00,
2013-03-16 08:40:00,72.1,68.3,30.00,NE,37,1.0,1.0,88,0.00,,,0.00,149,Wunderground v.1.15,2013-03-16 18:40:00,
2013-03-16 08:45:00,72.0,68.2,30.00,NE,37,0.0,1.0,88,0.00,,,0.00,199,Wunderground v.1.15,2013-03-16 18:45:00,
2013-03-16 08:50:00,72.1,68.3,30.01,NE,37,0.0,0.0,88,0.00,,,0.00,146,Wunderground v.1.15,2013-03-16 18:50:00,
2013-03-16 08:55:00,72.0,68.2,30.01,NE,37,1.0,1.0,88,0.00,,,0.00,107,Wunderground v.1.15,2013-03-16 18:55:00,
2013-03-16 09:00:00,71.8,68.1,30.00,NE,37,1.0,1.0,88,0.00,,,0.00,132,Wunderground v.1.15,2013-03-16 19:00:00,
2013-03-16 09:10:00,71.4,67.3,30.01,NE,37,1.0,1.0,87,0.00,,,0.00,169,Wunderground v.1.15,2013-03-16 19:10:00,
2013-03-16 09:15:00,71.4,67.3,30.01,NE,37,0.0,1.0,87,0.00,,,0.00,153,Wunderground v.1.15,2013-03-16 19:15:00,
2013-03-16 09:20:00,71.5,67.8,30.01,NE,36,0.0,0.0,88,0.00,,,0.00,209,Wunderground v.1.15,2013-03-16 19:20:00,
2013-03-16 09:25:00,71.6,67.5,30.01,NE,36,0.0,0.0,87,0.00,,,0.00,301,Wunderground v.1.15,2013-03-16 19:25:00,
2013-03-16 09:35:00,72.0,67.9,30.01,NE,36,1.0,2.0,87,0.00,,,0.00,392,Wunderground v.1.15,2013-03-16 19:35:00,
2013-03-16 09:40:00,72.1,68.0,30.01,NE,37,2.0,2.0,87,0.00,,,0.00,431,Wunderground v.1.15,2013-03-16 19:40:00,
2013-03-16 09:45:00,72.5,68.4,30.01,NNE,26,2.0,6.0,87,0.00,,,0.00,306,Wunderground v.1.15,2013-03-16 19:45:00,
2013-03-16 09:50:00,72.6,68.2,30.01,ENE,59,2.0,4.0,86,0.00,,,0.00,271,Wunderground v.1.15,2013-03-16 19:50:00,
2013-03-16 09:55:00,72.5,68.1,30.00,ENE,59,2.0,4.0,86,0.00,,,0.00,271,Wunderground v.1.15,2013-03-16 19:55:00,
2013-03-16 10:00:00,72.4,67.6,30.01,ENE,78,3.0,4.0,85,0.00,,,0.00,230,Wunderground v.1.15,2013-03-16 20:00:00,
2013-03-16 10:10:00,72.3,67.9,30.00,ENE,70,2.0,4.0,86,0.00,,,0.00,322,Wunderground v.1.15,2013-03-16 20:10:00,
2013-03-16 10:15:00,72.6,68.2,30.00,ENE,71,3.0,4.0,86,0.00,,,0.00,232,Wunderground v.1.15,2013-03-16 20:15:00,
2013-03-16 10:20:00,72.5,68.1,30.00,ENE,71,2.0,2.0,86,0.00,,,0.00,125,Wunderground v.1.15,2013-03-16 20:20:00,
2013-03-16 10:30:00,72.2,68.1,30.00,East,80,2.0,5.0,87,0.00,,,0.00,127,Wunderground v.1.15,2013-03-16 20:30:00,
2013-03-16 10:35:00,72.1,68.0,30.00,ESE,120,3.0,6.0,87,0.00,,,0.00,148,Wunderground v.1.15,2013-03-16 20:35:00,
2013-03-16 10:40:00,71.9,67.8,30.01,ESE,110,4.0,4.0,87,0.00,,,0.00,139,Wunderground v.1.15,2013-03-16 20:40:00,
2013-03-16 10:50:00,71.8,68.1,30.01,ESE,105,1.0,1.0,88,0.00,,,0.00,97,Wunderground v.1.15,2013-03-16 20:50:00,
2013-03-16 10:55:00,71.8,68.1,30.01,ESE,119,2.0,2.0,88,0.00,,,0.00,93,Wunderground v.1.15,2013-03-16 20:55:00,
2013-03-16 11:00:00,71.7,68.0,30.01,ESE,119,2.0,2.0,88,0.00,,,0.00,113,Wunderground v.1.15,2013-03-16 21:00:00,
2013-03-16 11:10:00,71.5,67.8,30.01,ENE,76,1.0,1.0,88,0.00,,,0.00,202,Wunderground v.1.15,2013-03-16 21:10:00,
2013-03-16 11:15:00,71.6,67.9,30.00,East,81,2.0,2.0,88,0.00,,,0.00,234,Wunderground v.1.15,2013-03-16 21:15:00,
2013-03-16 11:25:00,71.7,68.0,29.99,East,81,2.0,2.0,88,0.00,,,0.00,197,Wunderground v.1.15,2013-03-16 21:25:00,
2013-03-16 11:30:00,71.7,67.6,29.99,ENE,59,2.0,4.0,87,0.00,,,0.00,120,Wunderground v.1.15,2013-03-16 21:30:00,
2013-03-16 11:40:00,71.5,68.1,29.99,East,90,4.0,5.0,89,0.00,,,0.00,214,Wunderground v.1.15,2013-03-16 21:40:00,
2013-03-16 11:45:00,71.5,68.4,29.98,NNE,29,3.0,5.0,90,0.00,,,0.00,322,Wunderground v.1.15,2013-03-16 21:45:00,
2013-03-16 11:50:00,71.6,68.2,29.98,NE,34,3.0,3.0,89,0.00,,,0.00,279,Wunderground v.1.15,2013-03-16 21:50:00,
2013-03-16 11:55:00,71.7,68.6,29.98,ENE,77,3.0,5.0,90,0.00,,,0.00,338,Wunderground v.1.15,2013-03-16 21:55:00,
2013-03-16 12:00:00,71.8,68.4,29.99,ESE,105,3.0,4.0,89,0.00,,,0.00,77,Wunderground v.1.15,2013-03-16 22:00:00,
2013-03-16 12:10:00,71.5,68.1,29.99,ESE,117,2.0,2.0,89,0.00,,,0.00,70,Wunderground v.1.15,2013-03-16 22:10:00,
2013-03-16 12:20:00,71.1,67.7,29.99,SSE,151,3.0,3.0,89,0.00,,,0.00,102,Wunderground v.1.15,2013-03-16 22:20:00,
2013-03-16 12:25:00,70.9,67.8,29.99,SSE,152,4.0,4.0,90,0.00,,,0.00,176,Wunderground v.1.15,2013-03-16 22:25:00,
2013-03-16 12:30:00,70.9,68.1,29.98,SSE,154,3.0,3.0,91,0.00,,,0.00,204,Wunderground v.1.15,2013-03-16 22:30:00,
2013-03-16 12:35:00,70.9,68.5,29.98,South,184,3.0,5.0,92,0.00,,,0.00,151,Wunderground v.1.15,2013-03-16 22:35:00,
2013-03-16 12:40:00,70.7,67.9,29.98,South,184,3.0,3.0,91,0.00,,,0.00,183,Wunderground v.1.15,2013-03-16 22:40:00,
2013-03-16 12:45:00,70.8,67.7,29.98,South,184,2.0,3.0,90,0.00,,,0.00,211,Wunderground v.1.15,2013-03-16 22:45:00,
2013-03-16 12:50:00,71.0,67.9,29.97,South,184,0.0,0.0,90,0.00,,,0.00,283,Wunderground v.1.15,2013-03-16 22:50:00,
2013-03-16 12:55:00,71.3,68.2,29.97,South,182,1.0,1.0,90,0.00,,,0.00,227,Wunderground v.1.15,2013-03-16 22:55:00,
2013-03-16 13:00:00,71.3,67.9,29.96,South,182,3.0,3.0,89,0.00,,,0.00,160,Wunderground v.1.15,2013-03-16 23:00:00,
2013-03-16 13:10:00,71.3,68.2,29.96,South,177,3.0,3.0,90,0.00,,,0.00,137,Wunderground v.1.15,2013-03-16 23:10:00,
2013-03-16 13:15:00,71.2,68.1,29.95,South,177,2.0,3.0,90,0.00,,,0.00,202,Wunderground v.1.15,2013-03-16 23:15:00,
2013-03-16 13:20:00,71.2,68.1,29.95,South,176,2.0,6.0,90,0.00,,,0.00,146,Wunderground v.1.15,2013-03-16 23:20:00,
2013-03-16 13:25:00,71.2,67.8,29.95,South,173,3.0,6.0,89,0.00,,,0.00,113,Wunderground v.1.15,2013-03-16 23:25:00,
2013-03-16 13:30:00,71.1,67.7,29.94,SE,132,3.0,4.0,89,0.00,,,0.00,95,Wunderground v.1.15,2013-03-16 23:30:00,
2013-03-16 13:35:00,71.0,67.3,29.94,SE,132,3.0,4.0,88,0.00,,,0.00,118,Wunderground v.1.15,2013-03-16 23:35:00,
2013-03-16 13:40:00,71.0,67.3,29.94,SE,132,1.0,2.0,88,0.00,,,0.00,74,Wunderground v.1.15,2013-03-16 23:40:00,
2013-03-16 13:45:00,71.0,66.9,29.94,SE,132,1.0,2.0,87,0.00,,,0.00,100,Wunderground v.1.15,2013-03-16 23:45:00,
2013-03-16 13:55:00,71.1,67.0,29.94,SE,132,0.0,1.0,87,0.00,,,0.00,162,Wunderground v.1.15,2013-03-16 23:55:00,
2013-03-16 14:00:00,71.3,66.9,29.94,SE,132,1.0,1.0,86,0.00,,,0.00,207,Wunderground v.1.15,2013-03-17 00:00:00,
2013-03-16 14:10:00,71.6,67.2,29.94,SE,132,2.0,3.0,86,0.00,,,0.00,195,Wunderground v.1.15,2013-03-17 00:10:00,
2013-03-16 14:15:00,71.7,67.3,29.94,SE,132,2.0,3.0,86,0.00,,,0.00,114,Wunderground v.1.15,2013-03-17 00:15:00,
2013-03-16 14:20:00,71.8,67.7,29.94,SE,136,2.0,4.0,87,0.00,,,0.00,142,Wunderground v.1.15,2013-03-17 00:20:00,
2013-03-16 14:25:00,71.6,67.2,29.94,SE,138,3.0,4.0,86,0.00,,,0.00,155,Wunderground v.1.15,2013-03-17 00:25:00,
2013-03-16 14:30:00,71.5,67.4,29.94,SE,146,3.0,3.0,87,0.00,,,0.00,179,Wunderground v.1.15,2013-03-17 00:30:00,
2013-03-16 14:35:00,71.5,67.1,29.94,SE,146,2.0,3.0,86,0.00,,,0.00,135,Wunderground v.1.15,2013-03-17 00:35:00,
2013-03-16 14:45:00,71.6,67.2,29.94,SE,146,1.0,3.0,86,0.00,,,0.00,102,Wunderground v.1.15,2013-03-17 00:45:00,
2013-03-16 14:50:00,71.6,67.5,29.94,SE,146,2.0,2.0,87,0.00,,,0.00,84,Wunderground v.1.15,2013-03-17 00:50:00,
2013-03-16 14:55:00,71.5,67.4,29.93,SE,146,2.0,4.0,87,0.00,,,0.00,77,Wunderground v.1.15,2013-03-17 00:55:00,
2013-03-16 15:00:00,71.3,67.2,29.94,SE,146,2.0,4.0,87,0.00,,,0.00,114,Wunderground v.1.15,2013-03-17 01:00:00,
2013-03-16 15:10:00,71.2,67.1,29.94,SSE,147,1.0,2.0,87,0.00,,,0.00,72,Wunderground v.1.15,2013-03-17 01:10:00,
2013-03-16 15:15:00,71.2,66.8,29.93,SSE,147,1.0,5.0,86,0.00,,,0.00,74,Wunderground v.1.15,2013-03-17 01:15:00,
2013-03-16 15:20:00,71.2,66.8,29.93,SSE,147,2.0,2.0,86,0.00,,,0.00,91,Wunderground v.1.15,2013-03-17 01:20:00,
2013-03-16 15:25:00,71.3,67.2,29.93,SSE,147,1.0,2.0,87,0.00,,,0.00,84,Wunderground v.1.15,2013-03-17 01:25:00,
2013-03-16 15:30:00,71.3,67.6,29.93,SE,146,2.0,2.0,88,0.00,,,0.00,47,Wunderground v.1.15,2013-03-17 01:30:00,
2013-03-16 15:35:00,71.1,67.0,29.93,SE,146,3.0,4.0,87,0.00,,,0.00,39,Wunderground v.1.15,2013-03-17 01:35:00,
2013-03-16 15:40:00,71.0,66.9,29.94,SE,146,2.0,2.0,87,0.00,,,0.00,37,Wunderground v.1.15,2013-03-17 01:40:00,
2013-03-16 15:45:00,71.0,67.3,29.94,SE,146,1.0,2.0,88,0.00,,,0.00,32,Wunderground v.1.15,2013-03-17 01:45:00,
2013-03-16 15:55:00,70.9,67.2,29.93,SE,146,2.0,3.0,88,0.00,,,0.00,63,Wunderground v.1.15,2013-03-17 01:55:00,
2013-03-16 16:00:00,70.8,67.1,29.94,SE,146,1.0,1.0,88,0.00,,,0.00,58,Wunderground v.1.15,2013-03-17 02:00:00,
2013-03-16 16:10:00,70.8,67.1,29.94,SSE,151,1.0,1.0,88,0.00,,,0.00,46,Wunderground v.1.15,2013-03-17 02:10:00,
2013-03-16 16:15:00,70.7,67.3,29.94,SSE,151,1.0,1.0,89,0.00,,,0.00,42,Wunderground v.1.15,2013-03-17 02:15:00,
2013-03-16 16:20:00,70.5,67.1,29.94,SSE,151,0.0,0.0,89,0.00,,,0.00,54,Wunderground v.1.15,2013-03-17 02:20:00,
2013-03-16 16:30:00,70.4,67.3,29.94,SSE,151,0.0,0.0,90,0.00,,,0.00,19,Wunderground v.1.15,2013-03-17 02:30:00,
2013-03-16 16:35:00,70.3,67.5,29.94,SSE,151,0.0,0.0,91,0.00,,,0.00,26,Wunderground v.1.15,2013-03-17 02:35:00,
2013-03-16 16:40:00,70.2,67.8,29.94,SSE,151,0.0,0.0,92,0.00,,,0.00,56,Wunderground v.1.15,2013-03-17 02:40:00,
2013-03-16 16:45:00,70.2,67.8,29.94,SSE,151,0.0,0.0,92,0.00,,,0.00,37,Wunderground v.1.15,2013-03-17 02:45:00,
2013-03-16 16:50:00,70.1,68.0,29.94,SSE,151,0.0,1.0,93,0.00,,,0.00,19,Wunderground v.1.15,2013-03-17 02:50:00,
2013-03-16 16:55:00,69.9,67.8,29.94,SSE,151,1.0,1.0,93,0.00,,,0.00,19,Wunderground v.1.15,2013-03-17 02:55:00,
2013-03-16 17:00:00,69.7,67.9,29.95,SSE,151,1.0,1.0,94,0.00,,,0.00,23,Wunderground v.1.15,2013-03-17 03:00:00,
2013-03-16 17:10:00,69.4,67.6,29.94,SSE,151,0.0,0.0,94,0.00,,,0.00,21,Wunderground v.1.15,2013-03-17 03:10:00,
2013-03-16 17:15:00,69.4,67.6,29.95,SSE,151,0.0,3.0,94,0.00,,,0.00,12,Wunderground v.1.15,2013-03-17 03:15:00,
2013-03-16 17:20:00,69.2,67.7,29.95,SSE,151,1.0,1.0,95,0.00,,,0.00,12,Wunderground v.1.15,2013-03-17 03:20:00,
2013-03-16 17:25:00,69.1,67.6,29.95,SSE,151,2.0,2.0,95,0.00,,,0.00,16,Wunderground v.1.15,2013-03-17 03:25:00,
2013-03-16 17:35:00,69.0,67.5,29.96,SSE,151,2.0,3.0,95,0.00,,,0.00,14,Wunderground v.1.15,2013-03-17 03:35:00,
2013-03-16 17:40:00,68.9,67.1,29.96,SSE,151,3.0,3.0,94,0.00,,,0.00,14,Wunderground v.1.15,2013-03-17 03:40:00,
2013-03-16 17:45:00,69.0,67.5,29.97,SSE,151,2.0,3.0,95,0.00,,,0.00,16,Wunderground v.1.15,2013-03-17 03:45:00,
2013-03-16 17:55:00,69.0,67.5,29.96,SSE,151,1.0,3.0,95,0.00,,,0.00,12,Wunderground v.1.15,2013-03-17 03:55:00,
2013-03-16 18:00:00,68.9,67.4,29.96,SSE,151,1.0,2.0,95,0.00,,,0.00,7,Wunderground v.1.15,2013-03-17 04:00:00,
2013-03-16 18:05:00,68.9,67.4,29.96,SSE,151,1.0,2.0,95,0.00,,,0.00,9,Wunderground v.1.15,2013-03-17 04:05:00,
2013-03-16 18:10:00,68.8,67.3,29.96,SSE,151,1.0,3.0,95,0.00,,,0.00,7,Wunderground v.1.15,2013-03-17 04:10:00,
2013-03-16 18:15:00,68.7,67.2,29.96,SSE,151,1.0,3.0,95,0.00,,,0.00,5,Wunderground v.1.15,2013-03-17 04:15:00,
2013-03-16 18:25:00,68.6,67.4,29.96,SSE,151,0.0,0.0,96,0.00,,,0.00,0,Wunderground v.1.15,2013-03-17 04:25:00,
2013-03-16 18:30:00,68.5,67.3,29.97,SSE,151,0.0,0.0,96,0.00,,,0.00,0,Wunderground v.1.15,2013-03-17 04:30:00,
2013-03-16 18:35:00,68.3,67.1,29.97,SSE,151,0.0,2.0,96,0.00,,,0.00,0,Wunderground v.1.15,2013-03-17 04:35:00,
2013-03-16 18:40:00,68.3,67.1,29.97,SSE,151,1.0,2.0,96,0.00,,,0.00,0,Wunderground v.1.15,2013-03-17 04:40:00,
2013-03-16 18:45:00,68.3,67.4,29.98,SSE,151,2.0,2.0,97,0.00,,,0.00,0,Wunderground v.1.15,2013-03-17 04:45:00,
2013-03-16 18:50:00,68.3,67.4,29.98,SSE,151,1.0,1.0,97,0.00,,,0.00,0,Wunderground v.1.15,2013-03-17 04:50:00,
2013-03-16 18:55:00,68.2,67.0,29.99,SSW,210,1.0,3.0,96,0.00,,,0.00,0,Wunderground v.1.15,2013-03-17 04:55:00,
2013-03-16 19:00:00,68.3,67.1,29.99,SSW,210,3.0,3.0,96,0.00,,,0.00,0,Wunderground v.1.15,2013-03-17 05:00:00,
2013-03-16 19:10:00,68.4,67.2,29.99,SSW,210,1.0,1.0,96,0.00,,,0.00,0,Wunderground v.1.15,2013-03-17 05:10:00,
2013-03-16 19:15:00,68.4,67.2,29.99,SSW,210,0.0,1.0,96,0.00,,,0.00,0,Wunderground v.1.15,2013-03-17 05:15:00,
2013-03-16 19:20:00,68.4,67.2,29.99,SSW,210,0.0,2.0,96,0.00,,,0.00,0,Wunderground v.1.15,2013-03-17 05:20:00,
2013-03-16 19:25:00,68.3,67.1,29.99,SSW,210,1.0,2.0,96,0.00,,,0.00,0,Wunderground v.1.15,2013-03-17 05:25:00,
2013-03-16 19:30:00,68.3,67.1,29.99,SSW,210,1.0,1.0,96,0.00,,,0.00,0,Wunderground v.1.15,2013-03-17 05:30:00,
2013-03-16 19:35:00,68.3,67.1,29.99,SSW,210,1.0,2.0,96,0.00,,,0.00,0,Wunderground v.1.15,2013-03-17 05:35:00,
2013-03-16 19:40:00,68.2,67.0,29.99,SSW,210,1.0,1.0,96,0.00,,,0.00,0,Wunderground v.1.15,2013-03-17 05:40:00,
2013-03-16 19:45:00,68.1,66.9,29.99,SSW,210,1.0,2.0,96,0.00,,,0.00,0,Wunderground v.1.15,2013-03-17 05:45:00,
2013-03-16 19:50:00,68.0,67.1,30.00,SSW,210,1.0,1.0,97,0.00,,,0.00,0,Wunderground v.1.15,2013-03-17 05:50:00,
2013-03-16 19:55:00,68.0,67.1,30.00,SSW,210,1.0,1.0,97,0.00,,,0.00,0,Wunderground v.1.15,2013-03-17 05:55:00,
2013-03-16 20:00:00,67.9,67.0,30.00,SSW,210,1.0,1.0,97,0.00,,,0.00,0,Wunderground v.1.15,2013-03-17 06:00:00,
2013-03-16 20:10:00,68.0,67.1,30.00,SW,230,2.0,5.0,97,0.00,,,0.00,0,Wunderground v.1.15,2013-03-17 06:10:00,
2013-03-16 20:15:00,68.0,66.8,30.01,SW,232,3.0,5.0,96,0.00,,,0.00,0,Wunderground v.1.15,2013-03-17 06:15:00,
2013-03-16 20:20:00,68.2,66.7,30.01,West,261,4.0,9.0,95,0.00,,,0.00,0,Wunderground v.1.15,2013-03-17 06:20:00,
2013-03-16 20:25:00,68.4,66.9,30.02,West,261,5.0,9.0,95,0.00,,,0.00,0,Wunderground v.1.15,2013-03-17 06:25:00,
2013-03-16 20:30:00,68.5,67.0,30.02,West,261,4.0,4.0,95,0.00,,,0.00,0,Wunderground v.1.15,2013-03-17 06:30:00,
2013-03-16 20:35:00,68.5,67.0,30.03,West,260,3.0,4.0,95,0.00,,,0.00,0,Wunderground v.1.15,2013-03-17 06:35:00,
2013-03-16 20:40:00,68.5,67.0,30.02,West,260,3.0,3.0,95,0.00,,,0.01,0,Wunderground v.1.15,2013-03-17 06:40:00,
2013-03-16 20:45:00,68.4,66.9,30.03,West,260,3.0,4.0,95,0.00,,,0.01,0,Wunderground v.1.15,2013-03-17 06:45:00,
2013-03-16 20:50:00,68.3,67.1,30.03,West,260,3.0,3.0,96,0.00,,,0.01,0,Wunderground v.1.15,2013-03-17 06:50:00,
2013-03-16 20:55:00,68.1,66.9,30.03,West,260,2.0,3.0,96,0.00,,,0.01,0,Wunderground v.1.15,2013-03-17 06:55:00,
2013-03-16 21:00:00,68.0,66.8,30.03,West,260,2.0,3.0,96,0.00,,,0.01,0,Wunderground v.1.15,2013-03-17 07:00:00,
2013-03-16 21:10:00,67.7,66.8,30.02,West,260,0.0,0.0,97,0.00,,,0.01,0,Wunderground v.1.15,2013-03-17 07:10:00,
2013-03-16 21:15:00,67.7,66.8,30.02,West,260,0.0,0.0,97,0.00,,,0.01,0,Wunderground v.1.15,2013-03-17 07:15:00,
2013-03-16 21:25:00,67.6,66.7,30.03,West,260,0.0,0.0,97,0.00,,,0.01,0,Wunderground v.1.15,2013-03-17 07:25:00,
2013-03-16 21:30:00,67.5,66.9,30.03,West,260,0.0,0.0,98,0.00,,,0.01,0,Wunderground v.1.15,2013-03-17 07:30:00,
2013-03-16 21:35:00,67.5,66.9,30.04,West,260,0.0,0.0,98,0.00,,,0.01,0,Wunderground v.1.15,2013-03-17 07:35:00,
2013-03-16 21:40:00,67.4,66.8,30.04,West,260,0.0,0.0,98,0.00,,,0.01,0,Wunderground v.1.15,2013-03-17 07:40:00,
2013-03-16 21:45:00,67.3,66.7,30.04,West,260,1.0,1.0,98,0.00,,,0.01,0,Wunderground v.1.15,2013-03-17 07:45:00,
2013-03-16 21:50:00,67.2,66.6,30.04,West,260,2.0,3.0,98,0.00,,,0.01,0,Wunderground v.1.15,2013-03-17 07:50:00,
2013-03-16 21:55:00,67.2,66.6,30.04,West,261,2.0,4.0,98,0.00,,,0.01,0,Wunderground v.1.15,2013-03-17 07:55:00,
2013-03-16 22:00:00,67.1,66.5,30.03,West,261,2.0,2.0,98,0.00,,,0.01,0,Wunderground v.1.15,2013-03-17 08:00:00,
2013-03-16 22:10:00,67.1,66.5,30.04,West,261,1.0,2.0,98,0.00,,,0.01,0,Wunderground v.1.15,2013-03-17 08:10:00,
2013-03-16 22:15:00,67.0,66.4,30.04,West,261,2.0,2.0,98,0.00,,,0.01,0,Wunderground v.1.15,2013-03-17 08:15:00,
2013-03-16 22:25:00,67.0,66.4,30.03,West,261,0.0,1.0,98,0.00,,,0.01,0,Wunderground v.1.15,2013-03-17 08:25:00,
2013-03-16 22:35:00,67.1,66.5,30.03,West,261,0.0,0.0,98,0.00,,,0.01,0,Wunderground v.1.15,2013-03-17 08:35:00,
2013-03-16 22:40:00,67.1,66.5,30.03,West,261,0.0,0.0,98,0.00,,,0.01,0,Wunderground v.1.15,2013-03-17 08:40:00,
2013-03-16 22:45:00,67.1,66.5,30.03,West,261,0.0,0.0,98,0.00,,,0.01,0,Wunderground v.1.15,2013-03-17 08:45:00,
2013-03-16 22:50:00,67.1,66.5,30.02,West,261,0.0,2.0,98,0.00,,,0.01,0,Wunderground v.1.15,2013-03-17 08:50:00,
2013-03-16 22:55:00,67.0,66.4,30.02,West,261,1.0,2.0,98,0.00,,,0.01,0,Wunderground v.1.15,2013-03-17 08:55:00,
2013-03-16 23:00:00,67.0,66.7,30.02,West,261,1.0,1.0,99,0.00,,,0.01,0,Wunderground v.1.15,2013-03-17 09:00:00,
2013-03-16 23:10:00,66.9,66.6,30.02,West,261,1.0,1.0,99,0.00,,,0.01,0,Wunderground v.1.15,2013-03-17 09:10:00,
2013-03-16 23:15:00,66.9,66.6,30.02,West,261,1.0,1.0,99,0.00,,,0.01,0,Wunderground v.1.15,2013-03-17 09:15:00,
2013-03-16 23:20:00,66.9,66.6,30.02,West,261,0.0,0.0,99,0.00,,,0.01,0,Wunderground v.1.15,2013-03-17 09:20:00,
2013-03-16 23:25:00,66.9,66.6,30.01,West,261,0.0,0.0,99,0.00,,,0.01,0,Wunderground v.1.15,2013-03-17 09:25:00,
2013-03-16 23:30:00,66.9,66.6,30.02,West,261,0.0,0.0,99,0.00,,,0.01,0,Wunderground v.1.15,2013-03-17 09:30:00,
2013-03-16 23:35:00,66.9,66.6,30.01,West,261,0.0,0.0,99,0.00,,,0.01,0,Wunderground v.1.15,2013-03-17 09:35:00,
2013-03-16 23:40:00,66.8,66.5,30.01,West,261,0.0,1.0,99,0.00,,,0.01,0,Wunderground v.1.15,2013-03-17 09:40:00,
2013-03-16 23:45:00,66.8,66.5,30.01,West,261,1.0,1.0,99,0.00,,,0.01,0,Wunderground v.1.15,2013-03-17 09:45:00,
2013-03-16 23:50:00,66.7,66.4,30.01,West,261,1.0,1.0,99,0.00,,,0.01,0,Wunderground v.1.15,2013-03-17 09:50:00,
2013-03-16 23:55:00,66.7,66.4,30.01,West,261,0.0,2.0,99,0.00,,,0.00,0,Wunderground v.1.15,2013-03-17 09:55:00,